Date String (YYYY-MM-DD hh:mm:ss) UTC,Instrument flags,Ambient pressure (hPa),Sample flow (lpm),Bypass flow (lpm),Sample temperature (°C),Ambient temperature (°C),ASC tube jacket temperature (°C),LED temperature (°C),Box temperature (°C),Sample RH (%),Span deviation,Mass concentration (μg/m³),Mass concentration (μg/m³),Mass concentration (μg/m³)
DateTimeUTC,F1_M11,P_M11,Q1_M11,Q2_M11,T1_M11,T2_M11,T3_M11,T4_M11,T5_M11,U1_M11,ZSPAN_M11,X2_M11,X0_M11,X1_M11
2022-06-10 21:00:00,,0825.2,5.00,0.00,28.6,26.6,00.0,37.4,30.4,27.6,0000.0,0006.04,0020.16,0003.92
2022-06-10 21:01:00,,0825.2,5.01,0.00,28.6,26.7,00.0,37.4,30.3,26.8,0000.0,0006.07,0019.72,0003.92
2022-06-10 21:02:00,,0825.2,5.00,0.00,28.6,26.9,00.0,37.4,30.4,27.0,0000.0,0006.13,0019.23,0003.94
2022-06-10 21:03:00,,0825.2,5.01,0.00,28.6,27.1,00.0,37.4,30.4,27.4,0000.0,0006.14,0019.35,0003.97
2022-06-10 21:04:00,,0825.2,5.01,0.00,28.6,27.3,00.0,37.4,30.5,28.5,0000.0,0006.12,0020.45,0003.99
2022-06-10 21:05:00,,0825.2,5.00,0.00,28.6,27.5,00.0,37.4,30.6,28.8,0000.0,0006.12,0021.49,0004.01
2022-06-10 21:06:00,,0825.2,5.01,0.00,28.7,27.7,00.0,37.5,30.7,28.3,0000.0,0006.10,0021.64,0003.99
2022-06-10 21:07:00,,0825.2,4.99,0.00,28.7,27.8,00.0,37.5,30.8,26.1,0000.0,0006.20,0022.87,0004.00
2022-06-10 21:08:00,,0825.2,5.00,0.00,28.8,28.0,00.0,37.5,30.8,24.2,0000.0,0006.17,0024.14,0003.99
2022-06-10 21:09:00,,0825.2,5.01,0.00,28.8,27.8,00.0,37.5,30.8,24.5,0000.0,0006.13,0024.18,0003.96
2022-06-10 21:10:00,,0825.2,5.00,0.00,28.8,27.2,00.0,37.5,30.6,26.3,0000.0,0006.14,0024.38,0003.94
2022-06-10 21:11:00,,0825.2,4.99,0.00,28.7,26.8,00.0,37.4,30.5,25.2,0000.0,0006.14,0025.00,0003.91
2022-06-10 21:12:00,,0825.2,5.01,0.00,28.7,26.8,00.0,37.4,30.5,25.0,0000.0,0006.08,0024.37,0003.90
2022-06-10 21:13:00,,0825.1,5.00,0.00,28.6,26.9,00.0,37.4,30.4,25.7,0000.0,0006.06,0024.23,0003.89
2022-06-10 21:14:00,,0825.1,4.99,0.00,28.6,27.1,00.0,37.4,30.4,26.1,0000.0,0005.99,0024.19,0003.84
2022-06-10 21:15:00,,0825.1,5.01,0.00,28.6,27.2,00.0,37.5,30.5,26.4,0000.0,0006.00,0023.41,0003.81
2022-06-10 21:16:00,,0825.1,4.99,0.00,28.7,27.4,00.0,37.5,30.6,26.3,0000.0,0005.99,0023.30,0003.78
2022-06-10 21:17:00,,0825.0,5.01,0.00,28.7,27.6,00.0,37.5,30.7,26.9,0000.0,0005.99,0024.18,0003.76
2022-06-10 21:18:00,,0825.0,5.01,0.00,28.8,27.8,00.0,37.5,30.8,25.5,0000.0,0005.95,0023.85,0003.75
2022-06-10 21:19:00,,0825.1,5.00,0.00,28.8,27.9,00.0,37.5,30.8,24.8,0000.0,0005.97,0022.77,0003.75
2022-06-10 21:20:00,,0825.0,4.99,0.00,28.9,27.9,00.0,37.5,30.9,26.0,0000.0,0006.08,0023.96,0003.79
2022-06-10 21:21:00,,0825.0,4.99,0.00,28.8,27.2,00.0,37.5,30.7,24.5,0000.0,0006.09,0025.26,0003.80
2022-06-10 21:22:00,,0824.9,5.00,0.00,28.7,26.8,00.0,37.5,30.5,24.9,0000.0,0006.01,0024.49,0003.78
2022-06-10 21:23:00,,0824.9,5.02,0.00,28.7,26.7,00.0,37.5,30.5,25.4,0000.0,0005.97,0024.74,0003.78
2022-06-10 21:24:00,,0824.9,4.99,0.00,28.6,26.8,00.0,37.5,30.4,25.0,0000.0,0005.94,0024.73,0003.77
2022-06-10 21:25:00,,0824.9,4.99,0.00,28.6,27.0,00.0,37.5,30.5,25.1,0000.0,0005.92,0023.56,0003.78
2022-06-10 21:26:00,,0824.9,4.99,0.00,28.6,27.2,00.0,37.5,30.5,25.6,0000.0,0005.90,0023.43,0003.78
2022-06-10 21:27:00,,0824.9,5.00,0.00,28.7,27.4,00.0,37.5,30.6,25.7,0000.0,0005.94,0022.60,0003.80
2022-06-10 21:28:00,,0824.9,5.00,0.00,28.7,27.6,00.0,37.5,30.7,25.7,0000.0,0005.95,0021.07,0003.80
2022-06-10 21:29:00,,0824.9,5.00,0.00,28.8,27.8,00.0,37.5,30.8,25.0,0000.0,0005.95,0020.43,0003.80
2022-06-10 21:30:00,,0825.0,5.00,0.00,28.8,27.9,00.0,37.5,30.8,26.3,0000.0,0005.93,0020.39,0003.79
2022-06-10 21:31:00,,0824.9,5.00,0.00,28.9,28.1,00.0,37.6,30.9,26.4,0000.0,0005.85,0019.71,0003.76
2022-06-10 21:32:00,,0824.9,5.00,0.00,28.9,27.9,00.0,37.6,30.9,26.8,0000.0,0005.87,0019.01,0003.75
2022-06-10 21:33:00,,0824.9,5.00,0.00,28.9,27.2,00.0,37.5,30.7,26.6,0000.0,0005.92,0020.12,0003.76
2022-06-10 21:34:00,,0824.9,5.01,0.00,28.8,26.8,00.0,37.5,30.6,25.2,0000.0,0005.94,0020.81,0003.76
2022-06-10 21:35:00,,0824.8,5.00,0.00,28.7,26.8,00.0,37.5,30.5,25.0,0000.0,0005.88,0021.12,0003.75
2022-06-10 21:36:00,,0824.8,4.99,0.00,28.7,26.9,00.0,37.5,30.5,25.7,0000.0,0005.86,0020.99,0003.75
2022-06-10 21:37:00,,0824.8,5.01,0.00,28.7,27.1,00.0,37.5,30.5,24.8,0000.0,0005.84,0020.11,0003.74
2022-06-10 21:38:00,,0824.8,5.01,0.00,28.7,27.3,00.0,37.5,30.6,24.3,0000.0,0005.83,0020.06,0003.72
2022-06-10 21:39:00,,0824.8,5.00,0.00,28.7,27.5,00.0,37.5,30.7,24.3,0000.0,0005.77,0020.38,0003.70
2022-06-10 21:40:00,,0824.8,5.00,0.00,28.8,27.7,00.0,37.6,30.8,23.8,0000.0,0005.66,0021.38,0003.67
2022-06-10 21:41:00,,0824.7,4.99,0.00,28.8,27.9,00.0,37.6,30.8,24.5,0000.0,0005.56,0021.87,0003.65
2022-06-10 21:42:00,,0824.7,4.99,0.00,28.9,28.0,00.0,37.6,30.9,24.8,0000.0,0005.52,0021.00,0003.65
2022-06-10 21:43:00,,0824.7,5.01,0.00,28.9,27.5,00.0,37.6,30.8,24.1,0000.0,0005.46,0020.52,0003.65
2022-06-10 21:44:00,,0824.7,5.01,0.00,28.8,26.9,00.0,37.5,30.5,24.7,0000.0,0005.41,0020.47,0003.64
2022-06-10 21:45:00,,0824.7,4.99,0.00,28.7,26.7,00.0,37.5,30.5,24.1,0000.0,0005.38,0020.52,0003.62
2022-06-10 21:46:00,,0824.6,5.00,0.00,28.7,26.8,00.0,37.5,30.5,24.5,0000.0,0005.38,0019.77,0003.62
2022-06-10 21:47:00,,0824.7,5.01,0.00,28.6,26.9,00.0,37.5,30.4,23.2,0000.0,0005.39,0019.80,0003.61
2022-06-10 21:48:00,,0824.8,5.00,0.00,28.7,27.1,00.0,37.5,30.5,24.1,0000.0,0005.41,0020.22,0003.60
2022-06-10 21:49:00,,0824.8,5.00,0.00,28.7,27.3,00.0,37.5,30.6,25.1,0000.0,0005.37,0020.98,0003.59
2022-06-10 21:50:00,,0824.9,4.99,0.00,28.7,27.5,00.0,37.5,30.7,23.8,0000.0,0005.32,0020.88,0003.58
2022-06-10 21:51:00,,0824.9,4.99,0.00,28.8,27.7,00.0,37.5,30.7,24.3,0000.0,0005.34,0020.04,0003.59
2022-06-10 21:52:00,,0824.9,4.99,0.00,28.8,27.9,00.0,37.6,30.8,24.9,0000.0,0005.39,0018.59,0003.60
2022-06-10 21:53:00,,0824.9,5.01,0.00,28.9,28.0,00.0,37.6,30.9,23.8,0000.0,0005.41,0018.69,0003.59
2022-06-10 21:54:00,,0824.9,5.01,0.00,28.9,27.7,00.0,37.6,30.8,24.6,0000.0,0005.40,0019.24,0003.59
2022-06-10 21:55:00,,0824.8,5.00,0.00,28.8,27.1,00.0,37.5,30.6,23.2,0000.0,0005.34,0018.15,0003.58
2022-06-10 21:56:00,,0824.8,4.99,0.00,28.8,26.8,00.0,37.5,30.6,23.4,0000.0,0005.35,0016.84,0003.58
2022-06-10 21:57:00,,0824.7,5.01,0.00,28.7,26.9,00.0,37.5,30.5,24.1,0000.0,0005.37,0016.94,0003.58
2022-06-10 21:58:00,,0824.7,5.01,0.00,28.7,27.0,00.0,37.5,30.5,24.1,0000.0,0005.36,0018.54,0003.58
2022-06-10 21:59:00,,0824.7,4.99,0.00,28.7,27.2,00.0,37.5,30.5,24.7,0000.0,0005.31,0018.92,0003.57
